Location: Carthage
(33.8834°N, 106.6595°W)
Time: 13:08:24
(UTC+00:00)

Cosmos 2263 Rocket - Pass Details

Date: 13 February 2026
Orbit: 821 x 848 km, 71.0° (Epoch: 11 March)

Event Time Altitude Azimuth Distance (km) Brightness Sun altitude
Rises 12:02:07 0° 346° (NNW) 3,408 5.2 -23.6°
Reaches altitude 10° 12:04:43 10° 354° (N) 2,467 4.5 -23.0°
Maximum altitude 12:10:04 42° 64° (ENE) 1,186 3.4 -21.9°
Drops below altitude 10° 12:15:20 10° 135° (SE) 2,438 5.2 -20.8°
Sets 12:17:53 0° 142° (SE) 3,364 5.9 -20.3°
